Dobrodošli na spletni strani vremenske postaje Senovo. Vse informacije so informativnega značaja, saj vremenska postaja ni del državne mreže meteoroloških postaj. OBVESTILO: Letni količini padavin navedeni na spletni strani je potrebno prišteti 98,1 mm, zaradi izgube podatkov.


Posebna pozornost v zvezi z vremenskimi dogajanji ni potrebna.    Posebna pozornost v zvezi z vremenskimi dogajanji ni potrebna.

Pogled proti Armezu več informacij Pogled proti Armezu


Lisca več informacij Lisca


Radar strel več informacij blitzortung!


Radar padavin več informacij rain snow radar


Obiščite še:

Template documentation
and downloads

And another site



Weather Underground, zgodovina - Tekstovno

Dnevni povzetek za Avgust 26, 2017 Enote:  Metrično    Angleško   Obe
« Predhodni Dan
Naslednji Dan »
Dnevni Tedenski Mesečni Letni Po meri
  Višja: Nižja: Povprečje:
Temperatura: 34.6 °C 14.2 °C 23.4 °C
Točka rosišča: 20.1 °C 13.1 °C 16.2 °C
Vlažnost: 95 % 33 % 69 %
Hitrost vetra: 7.6 km/h 0.0 km/h 1.7 km/h
Sunki vetra: 17.2 km/h - -
Veter:- - SW
Zračni tlak: 1019.9 hPa 1015.1 hPa -
Padavine: 0.0 mm    
Historical Graphs
 
 
Tabelarni podarki za Avgust 26, 2017
Čas Temperatura Točka rosišča Zračni tlak Veter Hitrost vetra Sunki vetra Vlažnost Intenziteta padavin (urna)
00:02 18.0 °C 15.6 °C 1018.8 hPa Calm     86 % 0.0 mm
00:07 17.9 °C 15.7 °C 1018.8 hPa Calm     87 % 0.0 mm
00:12 17.9 °C 15.7 °C 1018.8 hPa Calm     87 % 0.0 mm
00:17 17.8 °C 15.6 °C 1019.9 hPa Calm     87 % 0.0 mm
00:22 17.8 °C 15.6 °C 1019.9 hPa Calm     87 % 0.0 mm
00:27 17.7 °C 15.7 °C 1019.9 hPa Calm     88 % 0.0 mm
00:32 17.6 °C 15.6 °C 1018.8 hPa Calm     88 % 0.0 mm
00:37 17.5 °C 15.5 °C 1018.8 hPa Calm     88 % 0.0 mm
00:42 17.5 °C 15.5 °C 1018.8 hPa Calm     88 % 0.0 mm
00:47 17.4 °C 15.4 °C 1019.9 hPa Calm     88 % 0.0 mm
00:52 17.4 °C 15.4 °C 1019.9 hPa Calm     88 % 0.0 mm
00:57 17.3 °C 15.3 °C 1019.9 hPa Calm     88 % 0.0 mm
01:02 17.2 °C 15.4 °C 1018.8 hPa Calm     89 % 0.0 mm
01:07 17.2 °C 15.4 °C 1018.8 hPa Calm     89 % 0.0 mm
01:12 17.1 °C 15.3 °C 1018.8 hPa Calm     89 % 0.0 mm
01:17 17.0 °C 15.2 °C 1018.8 hPa Calm     89 % 0.0 mm
01:22 17.0 °C 15.2 °C 1018.8 hPa Calm     89 % 0.0 mm
01:27 16.9 °C 15.2 °C 1018.8 hPa Calm     90 % 0.0 mm
01:32 16.8 °C 15.2 °C 1018.8 hPa Calm     90 % 0.0 mm
01:37 16.8 °C 15.2 °C 1018.8 hPa Calm     90 % 0.0 mm
01:42 16.7 °C 15.1 °C 1018.8 hPa Calm     90 % 0.0 mm
01:47 16.6 °C 14.9 °C 1018.8 hPa Calm     90 % 0.0 mm
01:52 16.6 °C 14.9 °C 1018.8 hPa Calm     90 % 0.0 mm
01:57 16.5 °C 14.8 °C 1018.8 hPa Calm     90 % 0.0 mm
02:02 16.5 °C 14.8 °C 1018.8 hPa Calm     90 % 0.0 mm
02:07 16.4 °C 14.8 °C 1018.8 hPa Calm     90 % 0.0 mm
02:12 16.3 °C 14.7 °C 1018.8 hPa Calm     90 % 0.0 mm
02:17 16.3 °C 14.7 °C 1018.8 hPa Calm   1.4 km/h 90 % 0.0 mm
02:22 16.2 °C 14.7 °C 1018.8 hPa Calm   1.4 km/h 91 % 0.0 mm
02:27 16.2 °C 14.7 °C 1018.8 hPa Calm     91 % 0.0 mm
02:32 16.2 °C 14.7 °C 1018.2 hPa Calm     91 % 0.0 mm
02:37 16.1 °C 14.6 °C 1018.2 hPa Calm     91 % 0.0 mm
02:42 16.1 °C 14.6 °C 1018.2 hPa Calm     91 % 0.0 mm
02:47 16.0 °C 14.6 °C 1018.8 hPa Calm     91 % 0.0 mm
02:52 16.0 °C 14.6 °C 1018.8 hPa Calm     91 % 0.0 mm
02:57 15.9 °C 14.4 °C 1018.8 hPa Calm     91 % 0.0 mm
03:02 15.9 °C 14.4 °C 1018.2 hPa Calm     91 % 0.0 mm
03:07 15.8 °C 14.3 °C 1018.2 hPa Calm     91 % 0.0 mm
03:12 15.8 °C 14.3 °C 1018.2 hPa Calm     91 % 0.0 mm
03:17 15.7 °C 14.2 °C 1018.2 hPa Calm     91 % 0.0 mm
03:23 15.7 °C 14.2 °C 1018.2 hPa Calm     91 % 0.0 mm
03:28 15.6 °C 14.1 °C 1018.2 hPa Calm     91 % 0.0 mm
03:33 15.6 °C 14.1 °C 1018.2 hPa Calm     91 % 0.0 mm
03:38 15.5 °C 14.1 °C 1018.2 hPa Calm     91 % 0.0 mm
03:43 15.5 °C 14.2 °C 1018.2 hPa Calm     92 % 0.0 mm
03:48 15.5 °C 14.2 °C 1018.2 hPa Calm     92 % 0.0 mm
03:53 15.4 °C 14.1 °C 1018.2 hPa Calm     92 % 0.0 mm
03:58 15.4 °C 14.1 °C 1018.2 hPa Calm     92 % 0.0 mm
04:03 15.3 °C 14.0 °C 1018.2 hPa Calm     92 % 0.0 mm
04:08 15.2 °C 13.9 °C 1018.2 hPa Calm     92 % 0.0 mm
04:13 15.2 °C 13.9 °C 1018.2 hPa Calm     92 % 0.0 mm
04:18 15.2 °C 13.9 °C 1018.2 hPa Calm     92 % 0.0 mm
04:23 15.1 °C 13.8 °C 1018.2 hPa Calm     92 % 0.0 mm
04:28 15.0 °C 13.7 °C 1018.2 hPa Calm     92 % 0.0 mm
04:33 15.0 °C 13.7 °C 1018.2 hPa Calm     92 % 0.0 mm
04:38 15.0 °C 13.7 °C 1018.2 hPa Calm     92 % 0.0 mm
04:43 14.9 °C 13.6 °C 1018.2 hPa Calm     92 % 0.0 mm
04:48 14.9 °C 13.8 °C 1018.2 hPa Calm     93 % 0.0 mm
04:53 14.8 °C 13.7 °C 1018.2 hPa Calm     93 % 0.0 mm
04:58 14.8 °C 13.7 °C 1018.2 hPa Calm     93 % 0.0 mm
05:03 14.8 °C 13.7 °C 1016.8 hPa Calm     93 % 0.0 mm
05:08 14.7 °C 13.6 °C 1016.8 hPa Calm     93 % 0.0 mm
05:14 14.7 °C 13.6 °C 1016.8 hPa Calm     93 % 0.0 mm
05:19 14.6 °C 13.5 °C 1016.8 hPa Calm     93 % 0.0 mm
05:22 14.6 °C 13.5 °C 1016.8 hPa Calm     93 % 0.0 mm
05:24 14.6 °C 13.5 °C 1016.8 hPa Calm     93 % 0.0 mm
05:27 14.5 °C 13.4 °C 1016.8 hPa Calm     93 % 0.0 mm
05:28 14.5 °C 13.4 °C 1016.8 hPa Calm     93 % 0.0 mm
05:30 14.5 °C 13.4 °C 1016.8 hPa Calm     93 % 0.0 mm
05:32 14.5 °C 13.4 °C 1018.2 hPa Calm     93 % 0.0 mm
05:33 14.5 °C 13.4 °C 1018.2 hPa Calm     93 % 0.0 mm
05:38 14.5 °C 13.4 °C 1018.2 hPa Calm     93 % 0.0 mm
05:48 14.4 °C 13.3 °C 1018.2 hPa Calm     93 % 0.0 mm
05:53 14.4 °C 13.3 °C 1018.2 hPa Calm     93 % 0.0 mm
05:58 14.4 °C 13.3 °C 1018.2 hPa Calm     93 % 0.0 mm
06:03 14.3 °C 13.2 °C 1018.2 hPa Calm     93 % 0.0 mm
06:08 14.3 °C 13.2 °C 1018.2 hPa Calm     93 % 0.0 mm
06:13 14.2 °C 13.1 °C 1018.2 hPa Calm     93 % 0.0 mm
06:18 14.2 °C 13.1 °C 1018.2 hPa Calm     93 % 0.0 mm
06:23 14.2 °C 13.2 °C 1018.2 hPa Calm     94 % 0.0 mm
06:28 14.2 °C 13.2 °C 1018.2 hPa Calm     94 % 0.0 mm
06:33 14.2 °C 13.2 °C 1018.2 hPa Calm     94 % 0.0 mm
06:38 14.2 °C 13.2 °C 1018.2 hPa Calm     94 % 0.0 mm
06:43 14.2 °C 13.2 °C 1018.2 hPa Calm     94 % 0.0 mm
06:48 14.2 °C 13.2 °C 1018.2 hPa Calm     94 % 0.0 mm
06:53 14.3 °C 13.3 °C 1018.2 hPa Calm     94 % 0.0 mm
06:58 14.3 °C 13.3 °C 1018.2 hPa Calm     94 % 0.0 mm
07:03 14.4 °C 13.4 °C 1018.2 hPa Calm     94 % 0.0 mm
07:08 14.5 °C 13.6 °C 1018.2 hPa Calm     94 % 0.0 mm
07:13 14.6 °C 13.7 °C 1018.2 hPa Calm     94 % 0.0 mm
07:18 14.7 °C 13.7 °C 1016.8 hPa Calm     94 % 0.0 mm
07:19 14.7 °C 13.7 °C 1018.2 hPa Calm     94 % 0.0 mm
07:24 14.9 °C 13.9 °C 1018.2 hPa Calm     94 % 0.0 mm
07:29 15.0 °C 14.1 °C 1018.2 hPa Calm     94 % 0.0 mm
07:34 15.2 °C 14.2 °C 1018.2 hPa Calm     94 % 0.0 mm
07:39 15.3 °C 14.5 °C 1018.2 hPa Calm     95 % 0.0 mm
07:44 15.5 °C 14.7 °C 1018.2 hPa Calm     95 % 0.0 mm
07:49 15.7 °C 14.9 °C 1018.2 hPa Calm     95 % 0.0 mm
07:54 15.9 °C 15.1 °C 1018.2 hPa NE 0.6 km/h 3.5 km/h 95 % 0.0 mm
07:59 16.3 °C 15.3 °C 1018.2 hPa NE 1.0 km/h 3.5 km/h 94 % 0.0 mm
08:04 16.6 °C 15.6 °C 1018.2 hPa NE 0.5 km/h 2.6 km/h 94 % 0.0 mm
08:09 16.8 °C 15.8 °C 1018.2 hPa NE 0.3 km/h 2.6 km/h 94 % 0.0 mm
08:14 17.2 °C 16.2 °C 1018.2 hPa NE 0.2 km/h 2.1 km/h 94 % 0.0 mm
08:19 17.7 °C 16.7 °C 1018.2 hPa Calm     94 % 0.0 mm
08:25 18.2 °C 17.1 °C 1018.2 hPa Calm     93 % 0.0 mm
08:30 18.7 °C 17.4 °C 1018.2 hPa Calm     92 % 0.0 mm
08:35 19.1 °C 17.8 °C 1018.2 hPa East 0.6 km/h 4.0 km/h 92 % 0.0 mm
08:40 19.6 °C 18.1 °C 1018.2 hPa East 1.3 km/h 4.0 km/h 91 % 0.0 mm
08:45 20.2 °C 18.5 °C 1018.2 hPa East 1.4 km/h 4.0 km/h 90 % 0.0 mm
08:50 20.6 °C 18.6 °C 1018.2 hPa East 2.1 km/h 4.3 km/h 88 % 0.0 mm
08:55 21.0 °C 18.6 °C 1018.2 hPa East 2.4 km/h 5.5 km/h 86 % 0.0 mm
09:00 21.3 °C 18.5 °C 1018.2 hPa ESE 2.7 km/h 5.5 km/h 84 % 0.0 mm
09:05 21.6 °C 18.6 °C 1018.2 hPa ESE 2.9 km/h 4.7 km/h 83 % 0.0 mm
09:10 21.9 °C 18.5 °C 1018.2 hPa East 2.3 km/h 4.3 km/h 81 % 0.0 mm
09:15 22.3 °C 18.9 °C 1018.2 hPa East 1.6 km/h 4.3 km/h 81 % 0.0 mm
09:20 22.6 °C 19.0 °C 1018.2 hPa East 2.1 km/h 4.7 km/h 80 % 0.0 mm
09:25 22.9 °C 18.8 °C 1018.2 hPa East 2.3 km/h 4.7 km/h 78 % 0.0 mm
09:30 23.3 °C 19.1 °C 1018.2 hPa ESE 2.4 km/h 5.5 km/h 77 % 0.0 mm
09:35 23.5 °C 19.0 °C 1018.2 hPa SSE 3.7 km/h 6.9 km/h 76 % 0.0 mm
09:40 23.8 °C 19.1 °C 1018.2 hPa South 5.0 km/h 7.9 km/h 75 % 0.0 mm
09:45 24.2 °C 19.3 °C 1018.2 hPa South 4.8 km/h 7.9 km/h 74 % 0.0 mm
09:50 24.4 °C 19.2 °C 1018.2 hPa South 4.8 km/h 9.3 km/h 73 % 0.0 mm
09:55 24.7 °C 19.3 °C 1018.2 hPa SSE 5.1 km/h 9.3 km/h 72 % 0.0 mm
10:00 25.0 °C 19.6 °C 1018.2 hPa SSE 3.7 km/h 6.1 km/h 72 % 0.0 mm
10:05 25.3 °C 19.7 °C 1018.8 hPa South 3.1 km/h 6.9 km/h 71 % 0.0 mm
10:10 25.6 °C 19.7 °C 1018.8 hPa SSE 3.2 km/h 6.9 km/h 70 % 0.0 mm
10:15 25.9 °C 19.8 °C 1018.8 hPa SE 3.9 km/h 6.4 km/h 69 % 0.0 mm
10:20 26.1 °C 19.7 °C 1018.2 hPa SE 4.5 km/h 6.9 km/h 68 % 0.0 mm
10:25 26.4 °C 19.8 °C 1018.2 hPa SSE 4.7 km/h 9.0 km/h 67 % 0.0 mm
10:30 26.6 °C 19.9 °C 1018.2 hPa South 4.7 km/h 9.0 km/h 67 % 0.0 mm
10:35 26.9 °C 20.0 °C 1018.2 hPa South 5.3 km/h 7.6 km/h 66 % 0.0 mm
10:40 27.2 °C 19.8 °C 1018.2 hPa South 5.8 km/h 7.6 km/h 64 % 0.0 mm
10:45 27.4 °C 19.7 °C 1018.2 hPa SSW 5.3 km/h 7.2 km/h 63 % 0.0 mm
10:50 27.7 °C 20.0 °C 1018.2 hPa South 3.9 km/h 6.9 km/h 63 % 0.0 mm
10:55 28.0 °C 20.1 °C 1018.2 hPa SSE 2.7 km/h 5.8 km/h 62 % 0.0 mm
11:00 28.3 °C 19.2 °C 1018.2 hPa SE 3.7 km/h 9.0 km/h 58 % 0.0 mm
11:05 28.5 °C 19.7 °C 1018.2 hPa SE 4.3 km/h 9.0 km/h 59 % 0.0 mm
11:10 28.7 °C 19.3 °C 1018.2 hPa SSE 4.0 km/h 7.6 km/h 57 % 0.0 mm
11:15 29.0 °C 19.1 °C 1018.2 hPa SSW 5.5 km/h 10.1 km/h 55 % 0.0 mm
11:20 29.2 °C 18.6 °C 1018.2 hPa SW 7.4 km/h 11.6 km/h 53 % 0.0 mm
11:25 29.5 °C 18.6 °C 1018.2 hPa SSW 6.9 km/h 11.6 km/h 52 % 0.0 mm
11:30 29.7 °C 18.5 °C 1018.2 hPa SSW 6.0 km/h 10.1 km/h 51 % 0.0 mm
11:35 29.9 °C 19.0 °C 1018.2 hPa SSW 4.8 km/h 9.7 km/h 52 % 0.0 mm
11:40 30.1 °C 18.6 °C 1018.2 hPa SSW 4.3 km/h 9.0 km/h 50 % 0.0 mm
11:45 30.2 °C 18.3 °C 1018.2 hPa SSW 5.6 km/h 10.1 km/h 49 % 0.0 mm
11:50 30.3 °C 18.4 °C 1018.2 hPa SSW 5.6 km/h 10.1 km/h 49 % 0.0 mm
11:55 30.6 °C 18.0 °C 1018.2 hPa SSW 5.0 km/h 12.6 km/h 47 % 0.0 mm
12:00 30.7 °C 18.1 °C 1018.2 hPa SW 7.1 km/h 14.0 km/h 47 % 0.0 mm
12:05 30.9 °C 17.9 °C 1018.8 hPa SW 6.9 km/h 14.0 km/h 46 % 0.0 mm
12:10 31.0 °C 18.0 °C 1018.8 hPa SW 3.9 km/h 7.9 km/h 46 % 0.0 mm
12:15 31.1 °C 17.4 °C 1018.8 hPa SW 4.0 km/h 9.3 km/h 44 % 0.0 mm
12:20 31.1 °C 17.4 °C 1018.2 hPa WSW 5.1 km/h 11.1 km/h 44 % 0.0 mm
12:25 31.3 °C 17.6 °C 1018.2 hPa WSW 5.1 km/h 11.1 km/h 44 % 0.0 mm
12:30 31.4 °C 17.3 °C 1018.2 hPa WSW 5.6 km/h 12.2 km/h 43 % 0.0 mm
12:35 31.3 °C 17.2 °C 1018.2 hPa West 6.9 km/h 13.7 km/h 43 % 0.0 mm
12:40 31.4 °C 17.3 °C 1018.2 hPa West 6.1 km/h 13.7 km/h 43 % 0.0 mm
12:45 31.5 °C 17.4 °C 1018.2 hPa NW 5.1 km/h 11.6 km/h 43 % 0.0 mm
12:50 31.6 °C 17.5 °C 1018.2 hPa WNW 6.4 km/h 14.3 km/h 43 % 0.0 mm
12:55 31.8 °C 17.7 °C 1018.2 hPa West 6.1 km/h 14.3 km/h 43 % 0.0 mm
13:00 31.9 °C 17.0 °C 1018.2 hPa SW 4.3 km/h 9.7 km/h 41 % 0.0 mm
13:05 32.0 °C 17.5 °C 1016.8 hPa SW 5.5 km/h 13.7 km/h 42 % 0.0 mm
13:10 32.2 °C 17.7 °C 1016.8 hPa SW 6.4 km/h 13.7 km/h 42 % 0.0 mm
13:15 32.3 °C 17.8 °C 1016.8 hPa SW 5.6 km/h 11.9 km/h 42 % 0.0 mm
13:20 32.4 °C 17.4 °C 1018.2 hPa SSW 4.8 km/h 9.3 km/h 41 % 0.0 mm
13:25 32.5 °C 17.2 °C 1018.2 hPa SW 5.6 km/h 10.5 km/h 40 % 0.0 mm
13:30 32.6 °C 17.2 °C 1018.2 hPa SW 6.9 km/h 13.7 km/h 40 % 0.0 mm
13:35 32.6 °C 16.8 °C 1018.2 hPa SW 7.4 km/h 17.2 km/h 39 % 0.0 mm
13:40 32.5 °C 17.2 °C 1018.2 hPa WSW 7.6 km/h 17.2 km/h 40 % 0.0 mm
13:45 32.6 °C 16.8 °C 1018.2 hPa WNW 5.1 km/h 14.0 km/h 39 % 0.0 mm
13:50 32.5 °C 16.8 °C 1016.8 hPa West 4.3 km/h 10.1 km/h 39 % 0.0 mm
13:55 32.6 °C 16.8 °C 1016.8 hPa WNW 5.3 km/h 10.1 km/h 39 % 0.0 mm
14:00 32.7 °C 16.9 °C 1016.8 hPa WNW 5.1 km/h 11.6 km/h 39 % 0.0 mm
14:05 32.7 °C 16.9 °C 1016.8 hPa WNW 5.5 km/h 11.6 km/h 39 % 0.0 mm
14:10 32.8 °C 17.0 °C 1016.8 hPa WNW 6.0 km/h 11.9 km/h 39 % 0.0 mm
14:15 32.9 °C 16.7 °C 1016.8 hPa West 5.6 km/h 11.9 km/h 38 % 0.0 mm
14:20 32.9 °C 17.1 °C 1016.8 hPa West 5.1 km/h 10.1 km/h 39 % 0.0 mm
14:25 33.0 °C 16.8 °C 1016.8 hPa West 4.3 km/h 10.1 km/h 38 % 0.0 mm
14:30 33.0 °C 16.8 °C 1016.8 hPa NNW 4.3 km/h 10.5 km/h 38 % 0.0 mm
14:35 33.1 °C 16.9 °C 1016.8 hPa NW 5.5 km/h 12.2 km/h 38 % 0.0 mm
14:40 33.2 °C 16.9 °C 1016.8 hPa West 5.0 km/h 12.2 km/h 38 % 0.0 mm
14:45 33.3 °C 16.6 °C 1016.8 hPa WNW 3.7 km/h 9.0 km/h 37 % 0.0 mm
14:50 33.4 °C 17.2 °C 1016.1 hPa WSW 3.1 km/h 7.9 km/h 38 % 0.0 mm
14:55 33.6 °C 17.3 °C 1016.1 hPa SW 3.7 km/h 7.9 km/h 38 % 0.0 mm
15:00 33.7 °C 17.0 °C 1016.1 hPa West 3.7 km/h 7.9 km/h 37 % 0.0 mm
15:05 33.7 °C 17.0 °C 1016.1 hPa WNW 3.5 km/h 7.9 km/h 37 % 0.0 mm
15:10 33.8 °C 17.1 °C 1016.1 hPa SW 5.0 km/h 9.7 km/h 37 % 0.0 mm
15:15 34.0 °C 17.3 °C 1016.1 hPa SW 4.8 km/h 9.7 km/h 37 % 0.0 mm
15:20 33.9 °C 16.7 °C 1016.1 hPa WNW 3.7 km/h 8.7 km/h 36 % 0.0 mm
15:25 33.8 °C 16.7 °C 1016.1 hPa NNW 3.5 km/h 8.7 km/h 36 % 0.0 mm
15:30 33.9 °C 17.2 °C 1016.1 hPa WNW 2.9 km/h 8.7 km/h 37 % 0.0 mm
15:35 33.9 °C 16.7 °C 1016.1 hPa West 3.4 km/h 7.9 km/h 36 % 0.0 mm
15:40 33.9 °C 16.7 °C 1016.1 hPa West 4.7 km/h 10.1 km/h 36 % 0.0 mm
15:45 34.0 °C 16.8 °C 1016.1 hPa SW 4.3 km/h 10.1 km/h 36 % 0.0 mm
15:50 33.9 °C 16.7 °C 1016.1 hPa North 3.9 km/h 6.9 km/h 36 % 0.0 mm
15:55 34.0 °C 15.9 °C 1016.1 hPa NNW 4.2 km/h 6.1 km/h 34 % 0.0 mm
15:56 34.0 °C 15.9 °C 1016.1 hPa NNW 4.2 km/h 6.1 km/h 34 % 0.0 mm
16:01 34.2 °C 16.6 °C 1016.1 hPa WSW 3.7 km/h 10.1 km/h 35 % 0.0 mm
16:06 34.2 °C 16.6 °C 1016.1 hPa SW 4.3 km/h 10.1 km/h 35 % 0.0 mm
16:11 34.1 °C 16.0 °C 1016.1 hPa West 5.5 km/h 10.1 km/h 34 % 0.0 mm
16:16 34.1 °C 16.0 °C 1016.1 hPa West 4.7 km/h 10.1 km/h 34 % 0.0 mm
16:21 34.2 °C 16.1 °C 1016.1 hPa West 3.2 km/h 9.0 km/h 34 % 0.0 mm
16:26 34.3 °C 16.2 °C 1016.1 hPa SSW 1.9 km/h 5.8 km/h 34 % 0.0 mm
16:31 34.3 °C 16.2 °C 1016.1 hPa South 1.8 km/h 6.1 km/h 34 % 0.0 mm
16:36 34.5 °C 16.8 °C 1015.1 hPa South 3.7 km/h 9.3 km/h 35 % 0.0 mm
16:41 34.6 °C 16.4 °C 1015.1 hPa SW 3.9 km/h 9.3 km/h 34 % 0.0 mm
16:46 34.4 °C 16.3 °C 1015.1 hPa West 3.2 km/h 6.9 km/h 34 % 0.0 mm
16:48 34.4 °C 16.3 °C 1016.1 hPa West 3.7 km/h 6.9 km/h 34 % 0.0 mm
16:53 34.4 °C 15.8 °C 1016.1 hPa WSW 3.5 km/h 6.1 km/h 33 % 0.0 mm
16:58 34.3 °C 16.2 °C 1016.1 hPa SW 3.5 km/h 10.1 km/h 34 % 0.0 mm
17:03 34.3 °C 16.2 °C 1016.1 hPa SW 3.4 km/h 10.1 km/h 34 % 0.0 mm
17:08 34.4 °C 16.3 °C 1016.1 hPa SW 2.3 km/h 6.4 km/h 34 % 0.0 mm
17:13 34.6 °C 16.4 °C 1016.1 hPa SW 2.4 km/h 6.4 km/h 34 % 0.0 mm
17:18 34.6 °C 16.4 °C 1016.1 hPa SW 3.7 km/h 7.6 km/h 34 % 0.0 mm
17:23 34.5 °C 15.9 °C 1016.1 hPa SW 3.4 km/h 7.6 km/h 33 % 0.0 mm
17:28 34.4 °C 16.7 °C 1016.1 hPa SW 1.1 km/h 4.7 km/h 35 % 0.0 mm
17:33 34.3 °C 16.2 °C 1016.1 hPa Calm   4.3 km/h 34 % 0.0 mm
17:38 34.1 °C 16.0 °C 1016.1 hPa West 2.1 km/h 9.7 km/h 34 % 0.0 mm
17:43 33.9 °C 16.3 °C 1016.1 hPa WSW 3.7 km/h 9.7 km/h 35 % 0.0 mm
17:48 33.8 °C 16.2 °C 1016.1 hPa WSW 2.3 km/h 5.5 km/h 35 % 0.0 mm
17:53 33.4 °C 16.3 °C 1016.1 hPa WSW 1.9 km/h 5.0 km/h 36 % 0.0 mm
17:58 32.8 °C 16.2 °C 1016.1 hPa SW 1.6 km/h 4.7 km/h 37 % 0.0 mm
18:03 32.2 °C 16.1 °C 1016.1 hPa WSW 1.6 km/h 4.7 km/h 38 % 0.0 mm
18:04 32.2 °C 16.1 °C 1016.1 hPa WSW 1.6 km/h 4.7 km/h 38 % 0.0 mm
18:08 31.5 °C 15.9 °C 1016.1 hPa WSW 1.0 km/h 4.3 km/h 39 % 0.0 mm
18:14 30.9 °C 15.7 °C 1016.1 hPa WNW 0.5 km/h 4.0 km/h 40 % 0.0 mm
18:19 30.4 °C 15.7 °C 1016.1 hPa WNW 0.8 km/h 4.0 km/h 41 % 0.0 mm
18:24 29.9 °C 15.6 °C 1016.1 hPa NNW 0.3 km/h 3.5 km/h 42 % 0.0 mm
18:29 29.4 °C 15.5 °C 1016.1 hPa Calm     43 % 0.0 mm
18:34 29.0 °C 15.5 °C 1016.1 hPa Calm     44 % 0.0 mm
18:39 28.6 °C 15.8 °C 1016.1 hPa Calm     46 % 0.0 mm
18:44 28.3 °C 16.2 °C 1016.1 hPa Calm     48 % 0.0 mm
18:49 28.0 °C 15.9 °C 1016.1 hPa NW 0.6 km/h 4.3 km/h 48 % 0.0 mm
18:54 27.7 °C 16.3 °C 1016.1 hPa NW 1.8 km/h 4.3 km/h 50 % 0.0 mm
18:59 27.3 °C 16.3 °C 1016.1 hPa NNW 1.3 km/h 4.3 km/h 51 % 0.0 mm
19:04 27.0 °C 16.6 °C 1016.1 hPa NNE 0.6 km/h 4.0 km/h 53 % 0.0 mm
19:09 26.6 °C 16.5 °C 1016.1 hPa NE 0.5 km/h 3.5 km/h 54 % 0.0 mm
19:14 26.4 °C 16.9 °C 1016.1 hPa Calm     56 % 0.0 mm
19:19 26.3 °C 16.8 °C 1016.1 hPa WNW 0.3 km/h 4.7 km/h 56 % 0.0 mm
19:24 26.1 °C 16.9 °C 1016.1 hPa NW 1.4 km/h 4.7 km/h 57 % 0.0 mm
19:29 25.9 °C 17.6 °C 1016.1 hPa NW 1.3 km/h 4.7 km/h 60 % 0.0 mm
19:34 25.7 °C 17.6 °C 1016.1 hPa Calm     61 % 0.0 mm
19:39 25.5 °C 17.7 °C 1016.1 hPa Calm     62 % 0.0 mm
19:44 25.2 °C 17.4 °C 1016.1 hPa Calm     62 % 0.0 mm
19:49 24.8 °C 17.5 °C 1016.1 hPa Calm     64 % 0.0 mm
19:54 24.5 °C 17.7 °C 1016.1 hPa Calm     66 % 0.0 mm
19:59 24.4 °C 17.6 °C 1016.1 hPa Calm     66 % 0.0 mm
20:04 24.2 °C 17.7 °C 1016.1 hPa Calm     67 % 0.0 mm
20:09 24.0 °C 17.5 °C 1016.1 hPa Calm     67 % 0.0 mm
20:14 23.8 °C 17.3 °C 1016.1 hPa Calm     67 % 0.0 mm
20:19 23.6 °C 17.3 °C 1016.1 hPa Calm     68 % 0.0 mm
20:24 23.4 °C 17.4 °C 1016.1 hPa Calm     69 % 0.0 mm
20:29 23.2 °C 17.2 °C 1016.1 hPa Calm     69 % 0.0 mm
20:34 23.0 °C 17.2 °C 1016.1 hPa Calm     70 % 0.0 mm
20:39 22.9 °C 17.1 °C 1016.1 hPa Calm     70 % 0.0 mm
20:44 22.7 °C 17.2 °C 1016.1 hPa Calm     71 % 0.0 mm
20:49 22.6 °C 17.1 °C 1016.1 hPa Calm     71 % 0.0 mm
20:54 22.4 °C 17.1 °C 1016.1 hPa Calm     72 % 0.0 mm
20:59 22.3 °C 17.2 °C 1016.1 hPa Calm     73 % 0.0 mm
21:04 22.2 °C 16.9 °C 1016.1 hPa Calm     72 % 0.0 mm
21:09 22.0 °C 17.2 °C 1016.1 hPa Calm     74 % 0.0 mm
21:14 21.9 °C 17.1 °C 1016.1 hPa Calm     74 % 0.0 mm
21:19 21.8 °C 17.2 °C 1016.1 hPa Calm     75 % 0.0 mm
21:24 21.7 °C 17.1 °C 1016.1 hPa Calm     75 % 0.0 mm
21:29 21.6 °C 17.2 °C 1016.1 hPa Calm     76 % 0.0 mm
21:34 21.5 °C 17.1 °C 1016.1 hPa Calm     76 % 0.0 mm
21:39 21.3 °C 16.9 °C 1016.1 hPa Calm     76 % 0.0 mm
21:44 21.2 °C 17.0 °C 1016.1 hPa Calm     77 % 0.0 mm
21:49 21.1 °C 16.9 °C 1016.8 hPa Calm     77 % 0.0 mm
21:54 21.0 °C 16.8 °C 1016.8 hPa Calm     77 % 0.0 mm
21:59 20.9 °C 17.1 °C 1016.8 hPa Calm     79 % 0.0 mm
22:04 20.8 °C 16.8 °C 1016.8 hPa Calm     78 % 0.0 mm
22:09 20.7 °C 16.9 °C 1016.8 hPa Calm     79 % 0.0 mm
22:14 20.6 °C 16.8 °C 1016.8 hPa Calm     79 % 0.0 mm
22:19 20.6 °C 17.0 °C 1016.8 hPa Calm     80 % 0.0 mm
22:24 20.5 °C 16.9 °C 1016.8 hPa Calm     80 % 0.0 mm
22:29 20.4 °C 16.8 °C 1016.8 hPa Calm     80 % 0.0 mm
22:34 20.3 °C 16.7 °C 1016.1 hPa Calm     80 % 0.0 mm
22:39 20.2 °C 16.6 °C 1016.1 hPa Calm     80 % 0.0 mm
22:44 20.2 °C 16.6 °C 1016.1 hPa ENE 0.5 km/h 4.7 km/h 80 % 0.0 mm
22:49 20.1 °C 16.7 °C 1016.8 hPa North 1.6 km/h 4.7 km/h 81 % 0.0 mm
22:54 20.1 °C 16.7 °C 1016.8 hPa NNW 1.6 km/h 4.3 km/h 81 % 0.0 mm
23:00 20.0 °C 16.6 °C 1016.8 hPa NW 0.8 km/h 4.0 km/h 81 % 0.0 mm
23:04 19.9 °C 16.7 °C 1016.8 hPa WNW 0.6 km/h 3.5 km/h 82 % 0.0 mm
23:09 19.9 °C 16.7 °C 1016.8 hPa WNW 0.2 km/h 3.5 km/h 82 % 0.0 mm
23:15 19.8 °C 16.4 °C 1016.8 hPa Calm     81 % 0.0 mm
23:19 19.7 °C 16.6 °C 1016.8 hPa WNW 0.3 km/h 2.6 km/h 82 % 0.0 mm
23:24 19.6 °C 16.4 °C 1016.8 hPa NW 0.6 km/h 3.2 km/h 82 % 0.0 mm
23:29 19.5 °C 16.6 °C 1016.8 hPa NNW 1.0 km/h 4.3 km/h 83 % 0.0 mm
23:35 19.4 °C 16.2 °C 1016.8 hPa NW 0.6 km/h 4.3 km/h 82 % 0.0 mm
23:39 19.3 °C 16.3 °C 1016.8 hPa Calm     83 % 0.0 mm
23:44 19.3 °C 16.5 °C 1016.8 hPa Calm     84 % 0.0 mm
23:50 19.2 °C 16.4 °C 1016.8 hPa Calm     84 % 0.0 mm
23:55 19.1 °C 16.3 °C 1016.8 hPa Calm     84 % 0.0 mm
Vremenska postaja Senovo
Podatki zbrani iz Weather Underground - 3 mb

Script developed by  Jim McMurry - jmcmurry@mwt.net Adapted for the template by  Wim van der Kuil - Leuven-Template.eu

Vremenski podatki so objavljeni na:

WeatherCloud

Weather Underground

AWEKAS

HAMweather, WeatherForYou, PWS Weather

MapView

Geostik

Slovenia weather network

Oprema, ki se uporablja:

Vremenski program
Cumulus

Cumulus